Location: Ailly
(50.0793°N, 1.9944°E)
Time: 06:58:36
(UTC+00:00)

Cosmos 2074 Rocket - Pass Details

Date: 15 January 2026
Orbit: 965 x 986 km, 82.9° (Epoch: 17 February)

Event Time Altitude Azimuth Distance (km) Brightness Sun altitude
Rises 05:42:59 0° 193° (SSW) 3,682 7.0 -18.9°
Reaches altitude 10° 05:45:30 10° 195° (SSW) 2,738 6.3 -18.5°
Maximum altitude 05:51:47 75° 281° (W) 1,024 3.9 -17.5°
Drops below altitude 10° 05:58:07 10° 7° (N) 2,752 6.3 -16.5°
Sets 06:00:39 0° 9° (N) 3,702 7.0 -16.1°
